This is the latest recevied weather packets stored in our database for station/object DL4JCP-6. If no packets are shown the sender has not sent any weather packets the latest 10 day(s).
| Time | Temp. | Humidity | Pressure | Rain* | Wind** | Luminosity | Snow |
|---|---|---|---|---|---|---|---|
| 1777460930 | 11.11° C | 43% | 1026.4 hPa | 0 mm | - | - | - |
| 1777460630 | 11.11° C | 47% | 1026.5 hPa | 0 mm | - | - | - |
| 1777460597 | 11.11° C | 47% | 1026.5 hPa | 0 mm | - | - | - |
| 1777460330 | 11.11° C | 47% | 1026.4 hPa | 0 mm | - | - | - |
| 1777460030 | 11.11° C | 47% | 1026.5 hPa | 0 mm | - | - | - |
| 1777459731 | 11.11° C | 46% | 1026.4 hPa | 0 mm | - | - | - |
| 1777459696 | 11.11° C | 46% | 1026.4 hPa | 0 mm | - | - | - |
| 1777459430 | 11.11° C | 49% | 1026.4 hPa | 0 mm | - | - | - |
| 1777459130 | 11.11° C | 47% | 1026.4 hPa | 0 mm | - | - | - |
| 1777458831 | 11.11° C | 46% | 1026.2 hPa | 0 mm | - | - | - |
| 1777458796 | 11.11° C | 46% | 1026.2 hPa | 0 mm | - | - | - |
| 1777458531 | 11.11° C | 46% | 1026.3 hPa | 0 mm | - | - | - |
| 1777458232 | 11.11° C | 47% | 1026.5 hPa | 0 mm | - | - | - |
| 1777457930 | 11.11° C | 46% | 1026.4 hPa | 0 mm | - | - | - |
| 1777457895 | 11.11° C | 46% | 1026.4 hPa | 0 mm | - | - | - |
| 1777457630 | 11.11° C | 46% | 1026.3 hPa | 0 mm | - | - | - |
| 1777457330 | 11.67° C | 45% | 1026.5 hPa | 0 mm | - | - | - |
| 1777457033 | 11.11° C | 46% | 1026.4 hPa | 0 mm | - | - | - |
| 1777456993 | 11.11° C | 46% | 1026.4 hPa | 0 mm | - | - | - |
| 1777456730 | 11.67° C | 45% | 1026.4 hPa | 0 mm | - | - | - |
| 1777456430 | 11.11° C | 46% | 1026.5 hPa | 0 mm | - | - | - |
| 1777456130 | 11.11° C | 47% | 1026.4 hPa | 0 mm | - | - | - |
| 1777456096 | 11.11° C | 47% | 1026.4 hPa | 0 mm | - | - | - |
| 1777455829 | 11.11° C | 47% | 1026.6 hPa | 0 mm | - | - | - |
| 1777455530 | 11.11° C | 45% | 1026.6 hPa | 0 mm | - | - | - |
* Rain latest hour (hover to see other rain measurements)
** Current wind speed in m/s (hover to see current wind gust speed)